Time,TemperatureF,DewpointF,PressureIn,WindDirection,WindDirectionDegrees,WindSpeedMPH,WindSpeedGustMPH,Humidity,HourlyPrecipIn,Conditions,Clouds,dailyrainin,SolarRadiationWatts/m^2,SoftwareType,DateUTC
2013-07-07 00:21:00,63.0,44.0,-100.00,South,185,2.0,10.0,49,0.00,,,0.00,1.000000,,2013-07-07 06:21:00,
2013-07-07 00:32:00,63.0,44.0,-100.00,South,185,2.0,10.0,49,0.00,,,0.00,1.000000,,2013-07-07 06:32:00,
2013-07-07 00:43:00,63.0,44.0,-100.00,South,185,2.0,10.0,49,0.00,,,0.00,1.000000,,2013-07-07 06:43:00,
2013-07-07 00:52:00,63.0,44.0,-100.00,South,185,2.0,10.0,49,0.00,,,0.00,1.000000,,2013-07-07 06:52:00,
2013-07-07 01:22:00,61.0,41.0,-100.00,SE,128,0.0,2.0,47,0.00,,,0.00,1.000000,,2013-07-07 07:22:00,
2013-07-07 01:33:00,61.0,41.0,-100.00,SE,128,0.0,2.0,47,0.00,,,0.00,1.000000,,2013-07-07 07:33:00,
2013-07-07 01:44:00,61.0,41.0,-100.00,SE,128,0.0,2.0,47,0.00,,,0.00,1.000000,,2013-07-07 07:44:00,
2013-07-07 01:53:00,61.0,41.0,-100.00,SE,128,0.0,2.0,47,0.00,,,0.00,1.000000,,2013-07-07 07:53:00,
2013-07-07 02:22:00,61.0,41.0,-100.00,East,99,0.0,3.0,47,0.00,,,0.00,1.000000,,2013-07-07 08:22:00,
2013-07-07 02:34:00,61.0,41.0,-100.00,East,99,0.0,3.0,47,0.00,,,0.00,1.000000,,2013-07-07 08:34:00,
2013-07-07 02:44:00,61.0,41.0,-100.00,East,99,0.0,3.0,47,0.00,,,0.00,1.000000,,2013-07-07 08:44:00,
2013-07-07 02:53:00,61.0,41.0,-100.00,East,99,0.0,3.0,47,0.00,,,0.00,1.000000,,2013-07-07 08:53:00,
2013-07-07 03:22:00,60.0,41.0,-100.00,ESE,113,3.0,6.0,50,0.00,,,0.00,1.000000,,2013-07-07 09:22:00,
2013-07-07 03:34:00,60.0,41.0,-100.00,ESE,113,3.0,6.0,50,0.00,,,0.00,1.000000,,2013-07-07 09:34:00,
2013-07-07 03:43:00,60.0,41.0,-100.00,ESE,113,3.0,6.0,50,0.00,,,0.00,1.000000,,2013-07-07 09:43:00,
2013-07-07 03:53:00,60.0,41.0,-100.00,ESE,113,3.0,6.0,50,0.00,,,0.00,1.000000,,2013-07-07 09:53:00,
2013-07-07 04:22:00,62.0,42.0,-100.00,East,89,3.0,8.0,48,0.00,,,0.00,1.000000,,2013-07-07 10:22:00,
2013-07-07 04:32:00,62.0,42.0,-100.00,East,89,3.0,8.0,48,0.00,,,0.00,1.000000,,2013-07-07 10:32:00,
2013-07-07 04:43:00,62.0,42.0,-100.00,East,89,3.0,8.0,48,0.00,,,0.00,1.000000,,2013-07-07 10:43:00,
2013-07-07 04:52:00,62.0,42.0,-100.00,East,89,3.0,8.0,48,0.00,,,0.00,1.000000,,2013-07-07 10:52:00,
2013-07-07 05:23:00,56.0,41.0,-100.00,ENE,75,2.0,7.0,58,0.00,,,0.00,1.000000,,2013-07-07 11:23:00,
2013-07-07 05:34:00,56.0,41.0,-100.00,ENE,75,2.0,7.0,58,0.00,,,0.00,1.000000,,2013-07-07 11:34:00,
2013-07-07 05:43:00,56.0,41.0,-100.00,ENE,75,2.0,7.0,58,0.00,,,0.00,1.000000,,2013-07-07 11:43:00,
2013-07-07 05:53:00,56.0,41.0,-100.00,ENE,75,2.0,7.0,58,0.00,,,0.00,1.000000,,2013-07-07 11:53:00,
2013-07-07 06:34:00,55.0,42.0,-100.00,ENE,57,2.0,4.0,61,0.00,,,0.00,1.000000,,2013-07-07 12:34:00,
2013-07-07 06:43:00,55.0,42.0,-100.00,ENE,57,2.0,4.0,61,0.00,,,0.00,1.000000,,2013-07-07 12:43:00,
2013-07-07 06:52:00,55.0,42.0,-100.00,ENE,57,2.0,4.0,61,0.00,,,0.00,1.000000,,2013-07-07 12:52:00,
2013-07-07 07:34:00,57.0,43.0,-100.00,NE,55,3.0,5.0,59,0.00,,,0.00,28.000000,,2013-07-07 13:34:00,
2013-07-07 07:43:00,57.0,43.0,-100.00,NE,55,3.0,5.0,59,0.00,,,0.00,28.000000,,2013-07-07 13:43:00,
2013-07-07 07:52:00,57.0,43.0,-100.00,NE,55,3.0,5.0,59,0.00,,,0.00,28.000000,,2013-07-07 13:52:00,
2013-07-07 08:22:00,68.0,45.0,-100.00,East,90,3.0,7.0,43,0.00,,,0.00,190.000000,,2013-07-07 14:22:00,
2013-07-07 08:34:00,68.0,45.0,-100.00,East,90,3.0,7.0,43,0.00,,,0.00,190.000000,,2013-07-07 14:34:00,
2013-07-07 08:43:00,68.0,45.0,-100.00,East,90,3.0,7.0,43,0.00,,,0.00,190.000000,,2013-07-07 14:43:00,
2013-07-07 08:53:00,68.0,45.0,-100.00,East,90,3.0,7.0,43,0.00,,,0.00,190.000000,,2013-07-07 14:53:00,
2013-07-07 09:22:00,71.0,43.0,-100.00,WSW,237,3.0,6.0,37,0.00,,,0.00,371.000000,,2013-07-07 15:22:00,
2013-07-07 09:34:00,71.0,43.0,-100.00,WSW,237,3.0,6.0,37,0.00,,,0.00,371.000000,,2013-07-07 15:34:00,
2013-07-07 09:43:00,71.0,43.0,-100.00,WSW,237,3.0,6.0,37,0.00,,,0.00,371.000000,,2013-07-07 15:43:00,
2013-07-07 09:52:00,71.0,43.0,-100.00,WSW,237,3.0,6.0,37,0.00,,,0.00,371.000000,,2013-07-07 15:52:00,
2013-07-07 10:23:00,75.0,41.0,-100.00,WSW,245,3.0,7.0,30,0.00,,,0.00,570.000000,,2013-07-07 16:23:00,
2013-07-07 10:34:00,75.0,41.0,-100.00,WSW,245,3.0,7.0,30,0.00,,,0.00,570.000000,,2013-07-07 16:34:00,
2013-07-07 10:43:00,75.0,41.0,-100.00,WSW,245,3.0,7.0,30,0.00,,,0.00,570.000000,,2013-07-07 16:43:00,
2013-07-07 10:53:00,75.0,41.0,-100.00,WSW,245,3.0,7.0,30,0.00,,,0.00,570.000000,,2013-07-07 16:53:00,
2013-07-07 11:22:00,77.0,41.0,-100.00,WNW,299,4.0,9.0,28,0.00,,,0.00,744.000000,,2013-07-07 17:22:00,
2013-07-07 11:34:00,77.0,41.0,-100.00,WNW,299,4.0,9.0,28,0.00,,,0.00,744.000000,,2013-07-07 17:34:00,
2013-07-07 11:43:00,77.0,41.0,-100.00,WNW,299,4.0,9.0,28,0.00,,,0.00,744.000000,,2013-07-07 17:43:00,
2013-07-07 11:53:00,77.0,41.0,-100.00,WNW,299,4.0,9.0,28,0.00,,,0.00,744.000000,,2013-07-07 17:53:00,
2013-07-07 12:22:00,79.0,41.0,-100.00,West,267,5.0,10.0,26,0.00,,,0.00,760.000000,,2013-07-07 18:22:00,
2013-07-07 12:33:00,79.0,41.0,-100.00,West,267,5.0,10.0,26,0.00,,,0.00,760.000000,,2013-07-07 18:33:00,
2013-07-07 12:43:00,79.0,41.0,-100.00,West,267,5.0,10.0,26,0.00,,,0.00,760.000000,,2013-07-07 18:43:00,
2013-07-07 12:53:00,79.0,41.0,-100.00,West,267,5.0,10.0,26,0.00,,,0.00,760.000000,,2013-07-07 18:53:00,
2013-07-07 12:54:00,82.0,41.0,-100.00,WSW,253,4.0,13.0,23,0.00,,,0.00,962.000000,,2013-07-07 18:54:00,
2013-07-07 13:22:00,82.0,41.0,-100.00,WSW,253,4.0,13.0,23,0.00,,,0.00,962.000000,,2013-07-07 19:22:00,
2013-07-07 13:34:00,82.0,41.0,-100.00,WSW,253,4.0,13.0,23,0.00,,,0.00,962.000000,,2013-07-07 19:34:00,
2013-07-07 13:43:00,82.0,41.0,-100.00,WSW,253,4.0,13.0,23,0.00,,,0.00,962.000000,,2013-07-07 19:43:00,
2013-07-07 14:22:00,82.0,37.0,-100.00,West,272,5.0,11.0,20,0.00,,,0.00,982.000000,,2013-07-07 20:22:00,
2013-07-07 14:34:00,82.0,37.0,-100.00,West,272,5.0,11.0,20,0.00,,,0.00,982.000000,,2013-07-07 20:34:00,
2013-07-07 14:42:00,82.0,37.0,-100.00,West,272,5.0,11.0,20,0.00,,,0.00,982.000000,,2013-07-07 20:42:00,
2013-07-07 14:53:00,82.0,37.0,-100.00,West,272,5.0,11.0,20,0.00,,,0.00,982.000000,,2013-07-07 20:53:00,
2013-07-07 15:22:00,85.0,35.0,-100.00,NW,309,5.0,12.0,17,0.00,,,0.00,867.000000,,2013-07-07 21:22:00,
2013-07-07 15:33:00,85.0,35.0,-100.00,NW,309,5.0,12.0,17,0.00,,,0.00,867.000000,,2013-07-07 21:33:00,
2013-07-07 15:43:00,85.0,35.0,-100.00,NW,309,5.0,12.0,17,0.00,,,0.00,867.000000,,2013-07-07 21:43:00,
2013-07-07 15:53:00,85.0,35.0,-100.00,NW,309,5.0,12.0,17,0.00,,,0.00,867.000000,,2013-07-07 21:53:00,
2013-07-07 16:34:00,85.0,34.0,-100.00,WNW,285,7.0,15.0,16,0.00,,,0.00,905.000000,,2013-07-07 22:34:00,
2013-07-07 16:43:00,85.0,34.0,-100.00,WNW,285,7.0,15.0,16,0.00,,,0.00,905.000000,,2013-07-07 22:43:00,
2013-07-07 16:53:00,85.0,34.0,-100.00,WNW,285,7.0,15.0,16,0.00,,,0.00,905.000000,,2013-07-07 22:53:00,
2013-07-07 17:22:00,87.0,35.0,-100.00,West,267,5.0,14.0,16,0.00,,,0.00,788.000000,,2013-07-07 23:22:00,
2013-07-07 17:33:00,87.0,35.0,-100.00,West,267,5.0,14.0,16,0.00,,,0.00,788.000000,,2013-07-07 23:33:00,
2013-07-07 17:43:00,87.0,35.0,-100.00,West,267,5.0,14.0,16,0.00,,,0.00,788.000000,,2013-07-07 23:43:00,
2013-07-07 17:52:00,87.0,35.0,-100.00,West,267,5.0,14.0,16,0.00,,,0.00,788.000000,,2013-07-07 23:52:00,
2013-07-07 18:22:00,86.0,35.0,-100.00,WSW,256,5.0,14.0,16,0.00,,,0.00,602.000000,,2013-07-08 00:22:00,
2013-07-07 18:33:00,86.0,35.0,-100.00,WSW,256,5.0,14.0,16,0.00,,,0.00,602.000000,,2013-07-08 00:33:00,
2013-07-07 18:43:00,86.0,35.0,-100.00,WSW,256,5.0,14.0,16,0.00,,,0.00,602.000000,,2013-07-08 00:43:00,
2013-07-07 18:53:00,86.0,35.0,-100.00,WSW,256,5.0,14.0,16,0.00,,,0.00,602.000000,,2013-07-08 00:53:00,
2013-07-07 19:32:00,82.0,34.0,-100.00,WNW,294,5.0,13.0,18,0.00,,,0.00,373.000000,,2013-07-08 01:32:00,
2013-07-07 19:43:00,82.0,34.0,-100.00,WNW,294,5.0,13.0,18,0.00,,,0.00,373.000000,,2013-07-08 01:43:00,
2013-07-07 19:52:00,82.0,34.0,-100.00,WNW,294,5.0,13.0,18,0.00,,,0.00,373.000000,,2013-07-08 01:52:00,
2013-07-07 21:34:00,68.0,46.0,-100.00,West,276,1.0,7.0,45,-99.99,,,0.02,7.000000,,2013-07-08 03:34:00,
2013-07-07 21:42:00,68.0,46.0,-100.00,West,276,1.0,7.0,45,-99.99,,,0.02,7.000000,,2013-07-08 03:42:00,
2013-07-07 21:52:00,68.0,46.0,-100.00,West,276,1.0,7.0,45,-99.99,,,0.02,7.000000,,2013-07-08 03:52:00,
2013-07-07 22:33:00,69.0,42.0,-100.00,West,271,8.0,17.0,38,0.00,,,0.02,1.000000,,2013-07-08 04:33:00,
2013-07-07 22:42:00,69.0,42.0,-100.00,West,271,8.0,17.0,38,0.00,,,0.02,1.000000,,2013-07-08 04:42:00,
2013-07-07 22:53:00,69.0,42.0,-100.00,West,271,8.0,17.0,38,0.00,,,0.02,1.000000,,2013-07-08 04:53:00,
2013-07-07 23:22:00,66.0,42.0,-100.00,NNW,346,3.0,20.0,41,0.00,,,0.02,1.000000,,2013-07-08 05:22:00,
2013-07-07 23:33:00,66.0,42.0,-100.00,NNW,346,3.0,20.0,41,0.00,,,0.02,1.000000,,2013-07-08 05:33:00,
2013-07-07 23:43:00,66.0,42.0,-100.00,NNW,346,3.0,20.0,41,0.00,,,0.02,1.000000,,2013-07-08 05:43:00,
2013-07-07 23:53:00,66.0,42.0,-100.00,NNW,346,3.0,20.0,41,0.00,,,0.02,1.000000,,2013-07-08 05:53:00,